Location: Newark
(58.8333°N, 23.5833°E)
Time: 13:18:35
(UTC+00:00)

Tiros 1 despin weight - Pass Details

Date: 26 November 2019
Orbit: 594 x 642 km, 48.2° (Epoch: 13 December)

Event Time Altitude Azimuth Distance (km) Brightness Sun altitude
Rises 12:50:30 0° 255° (WSW) 2,830 ? 3.9°
Reaches altitude 10° 12:53:21 10° 237° (WSW) 1,930 ? 3.7°
Maximum altitude 12:56:21 18° 194° (SSW) 1,479 ? 3.4°
Drops below altitude 10° 12:59:21 10° 151° (SSE) 1,937 ? 3.2°
Sets 13:02:14 0° 133° (SE) 2,846 ? 2.9°
